{"data":{"norad_id":65748,"epoch":"2026-09-20T03:37:27.574176Z","epoch_age_seconds":138678,"freshness":"FRESH","line1":"1 65748U 25216Q   26263.15101359  .00022381  00000+0  67142-3 0  9998","line2":"2 65748  53.1576 147.0083 0001364  51.6994 308.4132 15.34406414 55272","mean_motion":15.34406414,"eccentricity":0.0001364,"inclination_deg":53.1576,"raan_deg":147.0083,"arg_perigee_deg":51.6994,"mean_anomaly_deg":308.4132,"bstar":0.00067142,"rev_number":5527,"period_min":93.847365786624,"perigee_km":461.75108850535,"apogee_km":463.6172645223,"semimajor_km":6840.8211765138,"source":"CELESTRAK","updated_at":"2026-09-21T09:00:35.709742Z"}}